QPF
0.01 0.02 0.02 0.02 0.03 0.02 0.03 0.04 0.03 0.03 0.04 0.06 0.05 0.04 0.05 0.05 0.06 0.06 0.06 0.10 0.11 0.09 0.05 0.03 0.02 0.02 0.01 0.01 0.01 0.02 0.03 0.03 0.03 0.02 0.02 0.02 0.02 0.04
0.01 0.01 0.02 0.03 0.04 0.03 0.03 0.03 0.03 0.02 0.02 0.03 0.03 0.03 0.03 0.03 0.05 0.05 0.06 0.09 0.08 0.08 0.06 0.02 0.01 0.01 0.01 0.01 0.01 0.02 0.03 0.04 0.04 0.03 0.02 0.02 0.02 0.02
0.01 0.01 0.01 0.01 0.02 0.03 0.03 0.03 0.03 0.02 0.02 0.03 0.02 0.02 0.02 0.03 0.05 0.05 0.05 0.07 0.06 0.08 0.08 0.04 0.02 0.02 0.02 0.01 0.01 0.02 0.02 0.03 0.03 0.03 0.02 0.02 0.02 0.02
0.01 0.02 0.02 0.01 0.01 0.02 0.04 0.04 0.03 0.03 0.03 0.04 0.03 0.02 0.02 0.02 0.03 0.04 0.05 0.05 0.05 0.07 0.06 0.05 0.03 0.02 0.02 0.02 0.01 0.01 0.02 0.02 0.02 0.02 0.02 0.02 0.03 0.03
0.01 0.01 0.02 0.02 0.01 0.02 0.03 0.04 0.03 0.03 0.03 0.04 0.04 0.03 0.02 0.02 0.02 0.03 0.03 0.03 0.04 0.04 0.04 0.03 0.02 0.02 0.01 0.01 0.01 0.02 0.02 0.02 0.02 0.02 0.02 0.02 0.02 0.02
0.01 0.01 0.01 0.01 0.01 0.02 0.02 0.02 0.02 0.01 0.02 0.03 0.04 0.02 0.01 0.02 0.02 0.01 0.01 0.02 0.05 0.06 0.04 0.03 0.02 0.01 0.01 0.01 0.01 0.01 0.02 0.01 0.01 0.01 0.02 0.02 0.02 0.02
0.01 0.01 0.01 0.02 0.01 0.02 0.02 0.02 0.02 0.02 0.02 0.03 0.03 0.02 0.01 0.02 0.02 0.02 0.02 0.02 0.03 0.06 0.06 0.04 0.03 0.01 0.00 0.00 0.01 0.01 0.01 0.01 0.00 0.01 0.01 0.02 0.03 0.03
0.01 0.01 0.01 0.01 0.01 0.01 0.01 0.01 0.02 0.02 0.01 0.02 0.02 0.02 0.02 0.02 0.02 0.02 0.02 0.03 0.03 0.05 0.06 0.05 0.04 0.02 0.01 0.00 0.00 0.01 0.01 0.01 0.01 0.01 0.01 0.01 0.02 0.03
0.01 0.00 0.00 0.01 0.01 0.01 0.01 0.01 0.00 0.01 0.01 0.02 0.02 0.02 0.02 0.02 0.03 0.02 0.02 0.02 0.02 0.05 0.07 0.05 0.03 0.02 0.01 0.01 0.01 0.01 0.01 0.02 0.01 0.01 0.01 0.01 0.01 0.02
0.00 0.00 0.00 0.00 0.01 0.01 0.01 0.02 0.01 0.01 0.01 0.01 0.01 0.01 0.01 0.02 0.03 0.03 0.03 0.02 0.02 0.03 0.06 0.06 0.04 0.02 0.01 0.01 0.01 0.01 0.00 0.01 0.01 0.01 0.01 0.01 0.01 0.02
0.01 0.01 0.01 0.01 0.01 0.01 0.02 0.05 0.03 0.02 0.01 0.02 0.01 0.01 0.00 0.01 0.02 0.03 0.04 0.03 0.02 0.03 0.05 0.05 0.04 0.03 0.01 0.01 0.01 0.01 0.01 0.00 0.00 0.00 0.00 0.01 0.01 0.01
0.00 0.01 0.01 0.01 0.01 0.01 0.01 0.03 0.04 0.03 0.03 0.03 0.02 0.01 0.01 0.01 0.01 0.01 0.02 0.02 0.02 0.03 0.05 0.05 0.05 0.04 0.03 0.02 0.02 0.02 0.01 0.01 0.01 0.00 0.00 0.00 0.00 0.01
0.00 0.00 0.01 0.01 0.01 0.01 0.01 0.01 0.02 0.03 0.03 0.02 0.02 0.01 0.01 0.01 0.01 0.01 0.01 0.02 0.02 0.02 0.04 0.05 0.06 0.06 0.04 0.03 0.03 0.02 0.02 0.01 0.01 0.01 0.00 0.00 0.01 0.01
0.00 0.01 0.01 0.01 0.01 0.01 0.01 0.00 0.01 0.01 0.01 0.02 0.02 0.02 0.02 0.02 0.02 0.02 0.02 0.02 0.03 0.03 0.03 0.05 0.06 0.06 0.06 0.04 0.03 0.03 0.02 0.01 0.01 0.01 0.01 0.01 0.01 0.01
0.01 0.01 0.01 0.01 0.02 0.01 0.01 0.01 0.01 0.01 0.01 0.02 0.02 0.02 0.03 0.03 0.03 0.03 0.03 0.04 0.04 0.04 0.04 0.04 0.05 0.05 0.04 0.03 0.02 0.02 0.02 0.02 0.02 0.02 0.01 0.01 0.01 0.01
0.01 0.00 0.01 0.01 0.01 0.01 0.01 0.02 0.02 0.01 0.01 0.01 0.02 0.03 0.04 0.04 0.04 0.04 0.04 0.04 0.04 0.05 0.05 0.05 0.04 0.04 0.03 0.02 0.02 0.01 0.01 0.01 0.02 0.02 0.02 0.02 0.02 0.02
0.01 0.00 0.00 0.00 0.00 0.00 0.00 0.01 0.02 0.02 0.02 0.01 0.01 0.02 0.03 0.04 0.05 0.04 0.04 0.04 0.04 0.03 0.05 0.05 0.04 0.03 0.03 0.03 0.02 0.02 0.01 0.01 0.01 0.02 0.02 0.02 0.02 0.02
0.02 0.01 0.01 0.01 0.01 0.01 0.01 0.00 0.01 0.01 0.01 0.01 0.01 0.01 0.02 0.03 0.03 0.04 0.04 0.03 0.03 0.02 0.02 0.03 0.03 0.03 0.03 0.03 0.03 0.02 0.02 0.02 0.03 0.03 0.03 0.02 0.02 0.02
0.02 0.01 0.01 0.02 0.02 0.02 0.01 0.01 0.01 0.01 0.01 0.01 0.01 0.01 0.01 0.02 0.02 0.03 0.03 0.03 0.02 0.01 0.01 0.01 0.02 0.03 0.02 0.02 0.02 0.03 0.03 0.03 0.03 0.02 0.02 0.02 0.03 0.03
0.01 0.01 0.01 0.01 0.01 0.01 0.01 0.02 0.02 0.02 0.02 0.02 0.02 0.02 0.01 0.01 0.01 0.02 0.02 0.02 0.02 0.01 0.01 0.01 0.02 0.03 0.03 0.03 0.03 0.02 0.02 0.02 0.02 0.01 0.01 0.02 0.02 0.02
0.00 0.00 0.00 0.01 0.01 0.01 0.01 0.02 0.02 0.03 0.02 0.01 0.01 0.01 0.01 0.01 0.01 0.02 0.02 0.02 0.02 0.02 0.03 0.03 0.03 0.04 0.04 0.04 0.03 0.02 0.01 0.02 0.03 0.02 0.02 0.02 0.01 0.01
0.00 0.00 0.00 0.00 0.01 0.01 0.02 0.02 0.02 0.02 0.01 0.01 0.01 0.01 0.01 0.02 0.01 0.01 0.02 0.03 0.04 0.03 0.04 0.04 0.03 0.03 0.05 0.06 0.04 0.03 0.01 0.01 0.02 0.02 0.02 0.01 0.01 0.01
0.00 0.00 0.00 0.00 0.01 0.01 0.01 0.01 0.01 0.01 0.01 0.01 0.02 0.02 0.02 0.02 0.02 0.02 0.02 0.03 0.03 0.04 0.04 0.03 0.02 0.02 0.03 0.06 0.04 0.02 0.01 0.01 0.01 0.01 0.01 0.01 0.01 0.01
MSLP
1012.01 1011.76 1011.61 1011.57 1011.62 1011.76 1011.98 1012.27 1012.61 1013.01 1013.46 1013.93 1014.41 1014.87 1015.30 1015.66 1015.95 1016.16 1016.31 1016.40 1016.45 1016.49 1016.54 1016.59 1016.63 1016.67 1016.68 1016.65 1016.58 1016.46 1016.32 1016.16 1016.01 1015.88 1015.80 1015.76 1015.75 1015.76
1012.06 1011.74 1011.52 1011.41 1011.41 1011.52 1011.74 1012.07 1012.48 1012.98 1013.53 1014.11 1014.70 1015.25 1015.74 1016.15 1016.47 1016.70 1016.85 1016.94 1017.00 1017.05 1017.11 1017.18 1017.26 1017.33 1017.39 1017.40 1017.37 1017.29 1017.18 1017.03 1016.89 1016.75 1016.64 1016.56 1016.49 1016.43
1012.37 1012.00 1011.72 1011.54 1011.48 1011.56 1011.77 1012.10 1012.55 1013.09 1013.70 1014.34 1014.98 1015.59 1016.12 1016.56 1016.90 1017.14 1017.30 1017.41 1017.48 1017.56 1017.66 1017.77 1017.89 1018.01 1018.11 1018.17 1018.18 1018.13 1018.04 1017.91 1017.77 1017.62 1017.49 1017.37 1017.26 1017.14
1012.93 1012.54 1012.23 1012.01 1011.91 1011.95 1012.12 1012.44 1012.88 1013.42 1014.04 1014.69 1015.34 1015.95 1016.48 1016.92 1017.26 1017.51 1017.69 1017.82 1017.93 1018.05 1018.19 1018.34 1018.51 1018.67 1018.81 1018.90 1018.93 1018.90 1018.81 1018.68 1018.53 1018.37 1018.22 1018.07 1017.92 1017.77
1013.70 1013.34 1013.03 1012.79 1012.67 1012.68 1012.83 1013.11 1013.52 1014.03 1014.61 1015.22 1015.83 1016.40 1016.90 1017.32 1017.64 1017.89 1018.08 1018.24 1018.39 1018.55 1018.73 1018.92 1019.12 1019.31 1019.46 1019.54 1019.57 1019.52 1019.42 1019.27 1019.10 1018.92 1018.75 1018.58 1018.42 1018.25
1014.62 1014.31 1014.03 1013.82 1013.70 1013.70 1013.82 1014.07 1014.43 1014.88 1015.39 1015.93 1016.47 1016.97 1017.41 1017.78 1018.08 1018.32 1018.52 1018.70 1018.88 1019.08 1019.29 1019.52 1019.73 1019.91 1020.04 1020.10 1020.09 1020.00 1019.85 1019.67 1019.46 1019.26 1019.06 1018.88 1018.71 1018.54
1015.58 1015.35 1015.14 1014.98 1014.89 1014.90 1015.01 1015.22 1015.53 1015.91 1016.34 1016.80 1017.24 1017.66 1018.03 1018.34 1018.60 1018.83 1019.03 1019.23 1019.43 1019.66 1019.89 1020.12 1020.32 1020.48 1020.57 1020.57 1020.49 1020.34 1020.13 1019.89 1019.64 1019.40 1019.18 1018.99 1018.82 1018.66
1016.50 1016.36 1016.23 1016.14 1016.10 1016.14 1016.26 1016.45 1016.71 1017.03 1017.38 1017.74 1018.09 1018.42 1018.71 1018.97 1019.20 1019.40 1019.60 1019.82 1020.04 1020.28 1020.51 1020.73 1020.90 1021.01 1021.04 1020.98 1020.82 1020.60 1020.32 1020.01 1019.71 1019.43 1019.19 1018.98 1018.81 1018.65
1017.29 1017.26 1017.22 1017.21 1017.23 1017.31 1017.44 1017.62 1017.85 1018.11 1018.39 1018.67 1018.95 1019.20 1019.43 1019.64 1019.83 1020.02 1020.22 1020.44 1020.67 1020.90 1021.13 1021.32 1021.45 1021.51 1021.47 1021.34 1021.11 1020.81 1020.47 1020.10 1019.75 1019.44 1019.16 1018.94 1018.76 1018.59
1017.94 1017.99 1018.05 1018.12 1018.21 1018.33 1018.48 1018.66 1018.86 1019.08 1019.31 1019.53 1019.74 1019.94 1020.12 1020.29 1020.47 1020.65 1020.84 1021.05 1021.28 1021.51 1021.71 1021.87 1021.96 1021.97 1021.87 1021.68 1021.39 1021.03 1020.64 1020.23 1019.84 1019.49 1019.19 1018.93 1018.72 1018.54
1018.45 1018.59 1018.72 1018.86 1019.01 1019.17 1019.34 1019.52 1019.71 1019.91 1020.09 1020.27 1020.44 1020.60 1020.76 1020.91 1021.07 1021.24 1021.43 1021.63 1021.84 1022.05 1022.22 1022.35 1022.41 1022.37 1022.23 1022.00 1021.68 1021.29 1020.87 1020.43 1020.02 1019.64 1019.30 1019.01 1018.76 1018.54
1018.88 1019.08 1019.28 1019.47 1019.66 1019.85 1020.04 1020.22 1020.41 1020.58 1020.74 1020.90 1021.05 1021.19 1021.32 1021.46 1021.61 1021.78 1021.95 1022.14 1022.33 1022.51 1022.66 1022.75 1022.77 1022.71 1022.55 1022.30 1021.97 1021.58 1021.15 1020.70 1020.27 1019.86 1019.49 1019.16 1018.86 1018.58
1019.28 1019.53 1019.78 1020.01 1020.23 1020.43 1020.63 1020.81 1020.98 1021.14 1021.29 1021.44 1021.57 1021.70 1021.83 1021.97 1022.10 1022.26 1022.41 1022.58 1022.74 1022.89 1023.00 1023.06 1023.06 1022.98 1022.82 1022.57 1022.25 1021.87 1021.45 1021.01 1020.57 1020.14 1019.74 1019.36 1018.99 1018.65
1019.69 1019.99 1020.26 1020.52 1020.75 1020.96 1021.16 1021.33 1021.49 1021.64 1021.78 1021.92 1022.05 1022.17 1022.30 1022.43 1022.55 1022.69 1022.82 1022.95 1023.08 1023.18 1023.26 1023.29 1023.27 1023.18 1023.02 1022.79 1022.49 1022.14 1021.73 1021.30 1020.86 1020.41 1019.97 1019.53 1019.10 1018.68
1020.14 1020.46 1020.75 1021.02 1021.25 1021.47 1021.65 1021.82 1021.97 1022.11 1022.25 1022.38 1022.51 1022.63 1022.75 1022.86 1022.97 1023.08 1023.18 1023.27 1023.35 1023.41 1023.45 1023.46 1023.41 1023.32 1023.17 1022.96 1022.68 1022.35 1021.96 1021.54 1021.08 1020.61 1020.12 1019.62 1019.13 1018.64
1020.59 1020.93 1021.23 1021.50 1021.74 1021.95 1022.12 1022.28 1022.43 1022.57 1022.70 1022.83 1022.95 1023.07 1023.18 1023.28 1023.37 1023.45 1023.51 1023.56 1023.59 1023.61 1023.60 1023.58 1023.52 1023.41 1023.27 1023.07 1022.80 1022.48 1022.11 1021.68 1021.21 1020.70 1020.16 1019.61 1019.05 1018.49
1021.02 1021.36 1021.67 1021.95 1022.18 1022.39 1022.56 1022.72 1022.86 1022.99 1023.13 1023.26 1023.38 1023.50 1023.60 1023.69 1023.75 1023.79 1023.82 1023.82 1023.81 1023.78 1023.74 1023.68 1023.59 1023.48 1023.33 1023.13 1022.87 1022.55 1022.17 1021.72 1021.22 1020.66 1020.08 1019.47 1018.84 1018.23
1021.39 1021.73 1022.04 1022.32 1022.56 1022.76 1022.94 1023.10 1023.25 1023.39 1023.53 1023.66 1023.78 1023.90 1023.99 1024.06 1024.10 1024.12 1024.10 1024.07 1024.02 1023.95 1023.87 1023.78 1023.67 1023.54 1023.38 1023.17 1022.90 1022.57 1022.16 1021.68 1021.14 1020.53 1019.89 1019.22 1018.55 1017.89
1021.66 1022.00 1022.31 1022.59 1022.84 1023.06 1023.25 1023.42 1023.58 1023.73 1023.88 1024.02 1024.15 1024.26 1024.34 1024.40 1024.42 1024.41 1024.36 1024.30 1024.21 1024.11 1024.01 1023.89 1023.76 1023.61 1023.43 1023.20 1022.91 1022.55 1022.11 1021.59 1021.00 1020.35 1019.66 1018.94 1018.22 1017.52
1021.84 1022.18 1022.49 1022.78 1023.04 1023.28 1023.48 1023.68 1023.86 1024.03 1024.19 1024.34 1024.47 1024.58 1024.66 1024.70 1024.70 1024.67 1024.60 1024.51 1024.39 1024.27 1024.14 1024.01 1023.86 1023.69 1023.49 1023.24 1022.92 1022.53 1022.05 1021.49 1020.86 1020.16 1019.42 1018.66 1017.91 1017.18
1021.95 1022.28 1022.60 1022.91 1023.18 1023.44 1023.67 1023.89 1024.09 1024.29 1024.46 1024.62 1024.76 1024.86 1024.93 1024.95 1024.94 1024.88 1024.80 1024.68 1024.55 1024.41 1024.27 1024.11 1023.95 1023.77 1023.55 1023.28 1022.93 1022.51 1022.00 1021.40 1020.73 1019.99 1019.22 1018.43 1017.65 1016.91
1022.03 1022.36 1022.69 1023.01 1023.30 1023.58 1023.84 1024.08 1024.31 1024.52 1024.70 1024.87 1025.00 1025.10 1025.15 1025.16 1025.13 1025.06 1024.94 1024.81 1024.67 1024.51 1024.35 1024.19 1024.02 1023.82 1023.58 1023.29 1022.93 1022.48 1021.95 1021.33 1020.63 1019.87 1019.08 1018.27 1017.48 1016.73
1022.10 1022.44 1022.78 1023.10 1023.42 1023.72 1024.00 1024.26 1024.50 1024.72 1024.92 1025.08 1025.21 1025.29 1025.33 1025.32 1025.27 1025.17 1025.04 1024.89 1024.72 1024.55 1024.38 1024.20 1024.02 1023.81 1023.56 1023.26 1022.89 1022.43 1021.89 1021.26 1020.55 1019.79 1018.99 1018.18 1017.39 1016.65
Thickness
5701 5699 5697 5696 5694 5692 5690 5686 5680 5674 5674 5679 5680 5683 5684 5684 5684 5683 5683 5682 5682 5682 5681 5681 5681 5680 5679 5678 5677 5676 5675 5675 5674 5673 5673 5672 5671 5670
5696 5694 5692 5690 5689 5688 5686 5683 5680 5676 5672 5674 5675 5677 5678 5678 5678 5677 5677 5677 5677 5676 5676 5675 5675 5674 5674 5672 5672 5671 5670 5670 5669 5668 5667 5666 5665 5664
5691 5689 5687 5685 5683 5682 5681 5679 5676 5674 5669 5669 5670 5671 5671 5671 5670 5670 5671 5671 5670 5670 5670 5669 5669 5669 5668 5667 5666 5665 5665 5665 5664 5663 5662 5661 5661 5660
5685 5683 5681 5680 5678 5676 5675 5673 5671 5670 5667 5663 5664 5664 5665 5665 5665 5664 5665 5665 5664 5664 5664 5664 5664 5663 5663 5662 5661 5661 5660 5659 5659 5658 5658 5657 5656 5655
5681 5679 5677 5675 5672 5671 5670 5668 5666 5666 5663 5660 5658 5659 5659 5659 5658 5659 5659 5659 5659 5659 5658 5658 5658 5657 5657 5656 5656 5656 5655 5655 5654 5653 5653 5652 5651 5650
5677 5675 5673 5671 5668 5666 5665 5663 5661 5659 5657 5655 5652 5652 5652 5653 5652 5651 5651 5652 5652 5653 5652 5652 5652 5651 5651 5651 5651 5650 5650 5649 5649 5648 5647 5647 5646 5645
5672 5671 5669 5668 5666 5664 5662 5658 5656 5653 5651 5648 5646 5645 5644 5644 5644 5644 5644 5644 5645 5646 5645 5645 5645 5645 5645 5645 5645 5645 5644 5644 5643 5643 5642 5641 5641 5640
5667 5665 5664 5663 5662 5660 5658 5656 5654 5650 5646 5644 5642 5640 5640 5640 5640 5639 5637 5636 5635 5639 5638 5638 5639 5638 5639 5639 5639 5639 5639 5638 5638 5637 5636 5636 5635 5634
5663 5660 5660 5659 5656 5655 5653 5652 5650 5649 5647 5643 5639 5638 5637 5638 5636 5634 5632 5630 5630 5632 5631 5631 5631 5631 5633 5633 5634 5633 5633 5633 5632 5632 5631 5630 5629 5628
5659 5657 5654 5652 5652 5650 5648 5645 5644 5643 5642 5640 5638 5637 5637 5636 5633 5631 5628 5626 5625 5626 5625 5623 5624 5625 5628 5628 5628 5628 5628 5627 5627 5626 5625 5624 5623 5622
5654 5653 5650 5648 5647 5645 5642 5639 5637 5637 5637 5636 5635 5634 5633 5632 5630 5626 5622 5619 5617 5618 5619 5617 5617 5618 5620 5622 5623 5623 5622 5621 5620 5620 5619 5618 5616 5615
5648 5647 5646 5644 5642 5639 5636 5633 5630 5630 5629 5629 5628 5627 5626 5625 5624 5621 5618 5614 5612 5611 5614 5612 5611 5610 5611 5614 5615 5615 5614 5614 5613 5613 5612 5611 5610 5608
5642 5640 5640 5638 5636 5634 5631 5628 5626 5625 5623 5621 5620 5619 5618 5618 5617 5616 5615 5612 5608 5608 5610 5607 5606 5604 5603 5604 5606 5607 5607 5607 5606 5605 5605 5604 5603 5602
5638 5636 5635 5633 5631 5628 5626 5624 5622 5619 5616 5614 5612 5611 5610 5610 5610 5611 5610 5609 5607 5606 5606 5604 5601 5599 5597 5596 5597 5599 5600 5599 5598 5598 5598 5598 5597 5596
5634 5632 5630 5628 5625 5623 5621 5619 5616 5613 5610 5607 5606 5605 5605 5605 5605 5604 5604 5603 5603 5602 5601 5600 5598 5596 5593 5591 5591 5591 5591 5592 5591 5591 5591 5591 5591 5590
5627 5626 5624 5622 5620 5618 5615 5613 5610 5607 5605 5602 5601 5600 5600 5599 5598 5597 5595 5595 5594 5594 5595 5594 5593 5591 5588 5587 5586 5585 5585 5584 5585 5585 5584 5584 5584 5584
5621 5618 5616 5614 5612 5610 5608 5606 5604 5602 5599 5597 5596 5595 5594 5593 5592 5591 5589 5587 5585 5585 5585 5586 5586 5585 5584 5582 5580 5579 5578 5578 5578 5578 5577 5578 5579 5579
5614 5611 5609 5607 5605 5604 5603 5601 5599 5597 5595 5593 5592 5590 5588 5587 5586 5585 5583 5581 5580 5579 5579 5579 5578 5577 5575 5575 5575 5574 5573 5572 5572 5572 5572 5571 5572 5573
5607 5605 5603 5602 5601 5599 5597 5595 5594 5593 5591 5589 5588 5586 5584 5583 5581 5580 5578 5576 5574 5574 5574 5573 5571 5569 5567 5567 5569 5570 5568 5568 5567 5567 5567 5566 5567 5569
5602 5600 5598 5597 5596 5594 5592 5590 5589 5587 5586 5584 5583 5581 5580 5578 5576 5574 5573 5571 5570 5569 5568 5568 5567 5565 5564 5563 5563 5564 5564 5563 5562 5562 5562 5562 5562 5563
5597 5595 5594 5593 5591 5589 5587 5585 5583 5581 5580 5579 5577 5576 5574 5573 5571 5570 5568 5567 5565 5564 5563 5563 5564 5563 5562 5559 5557 5557 5559 5560 5559 5557 5557 5556 5556 5556
5591 5589 5588 5587 5585 5583 5581 5579 5577 5576 5574 5573 5572 5570 5569 5567 5566 5565 5563 5561 5560 5559 5558 5558 5558 5557 5556 5554 5552 5551 5552 5554 5554 5553 5552 5551 5549 5549
5585 5583 5581 5580 5578 5577 5575 5573 5572 5570 5568 5567 5566 5564 5563 5561 5560 5559 5557 5556 5555 5554 5553 5552 5551 5550 5549 5548 5546 5546 5546 5546 5546 5546 5547 5547 5547 5546